This is the latest recevied weather packets stored in our database for station/object SA7AHC. If no packets are shown the sender has not sent any weather packets the latest 10 day(s).
| Time | Temp. | Humidity | Pressure | Rain* | Wind** | Luminosity | Snow |
|---|---|---|---|---|---|---|---|
| 1777437065 | -1.11° C | 86% | 1029.2 hPa | 0 mm | - | 51 W/m² | - |
| 1777436463 | -1.67° C | 87% | 1029 hPa | 0 mm | - | 54 W/m² | - |
| 1777435864 | -2.22° C | 88% | 1029 hPa | 0 mm | - | 42 W/m² | - |
| 1777435265 | -2.22° C | 88% | 1028.9 hPa | 0 mm | - | 25 W/m² | - |
| 1777434665 | -2.78° C | 88% | 1028.9 hPa | 0 mm | - | 18 W/m² | - |
| 1777434069 | -2.22° C | 87% | 1028.9 hPa | 0 mm | - | 11 W/m² | - |
| 1777433463 | -2.22° C | 87% | 1028.8 hPa | 0 mm | - | 7 W/m² | - |
| 1777432864 | -2.22° C | 87% | 1028.9 hPa | 0 mm | - | 5 W/m² | - |
| 1777432262 | -2.22° C | 87% | 1028.9 hPa | 0 mm | - | 0 W/m² | - |
| 1777431662 | -2.22° C | 86% | 1028.9 hPa | 0 mm | - | 0 W/m² | - |
| 1777431059 | -2.22° C | 86% | 1029 hPa | 0 mm | - | 0 W/m² | - |
| 1777430455 | -2.22° C | 87% | 1029 hPa | 0 mm | - | 0 W/m² | - |
| 1777429853 | -2.22° C | 87% | 1028.9 hPa | 0 mm | - | 0 W/m² | - |
| 1777429240 | -2.22° C | 87% | 1028.8 hPa | 0 mm | - | 0 W/m² | - |
| 1777428635 | -2.78° C | 87% | 1028.8 hPa | 0 mm | - | 0 W/m² | - |
| 1777428033 | -2.78° C | 87% | 1028.9 hPa | 0 mm | - | 0 W/m² | - |
| 1777427434 | -2.78° C | 87% | 1028.9 hPa | 0 mm | - | 0 W/m² | - |
| 1777426833 | -2.78° C | 86% | 1028.9 hPa | 0 mm | - | 0 W/m² | - |
| 1777426230 | -2.78° C | 86% | 1028.8 hPa | 0 mm | - | 0 W/m² | - |
| 1777425633 | -2.78° C | 86% | 1028.8 hPa | 0 mm | - | 0 W/m² | - |
| 1777425030 | -2.78° C | 85% | 1028.8 hPa | 0 mm | - | 0 W/m² | - |
| 1777424426 | -2.78° C | 85% | 1028.8 hPa | 0 mm | - | 0 W/m² | - |
| 1777423822 | -2.22° C | 84% | 1028.8 hPa | 0 mm | - | 0 W/m² | - |
| 1777423208 | -2.22° C | 83% | 1028.9 hPa | 0 mm | - | 0 W/m² | - |
| 1777422603 | -2.22° C | 83% | 1028.9 hPa | 0 mm | - | 0 W/m² | - |
* Rain latest hour (hover to see other rain measurements)
** Current wind speed in m/s (hover to see current wind gust speed)